Alabaster, AL

12:20 PM CDT on October 01, 2016 (GMT -0500)
Shelby County

Weather History for KEET - September, 2013

Change the Weather History Date:

Friday, September 20, 2013

  Actual Average Record
Temperature  
Mean Temperature 78 °F 73 °F  
Max Temperature 90 °F 84 °F 97 °F (1978)
Min Temperature 66 °F 63 °F 39 °F (1981)
Degree Days  
Heating Degree Days 0 0  
Month to date heating degree days 0 0  
Since 1 July heating degree days 0 0  
Cooling Degree Days 13 8  
Month to date cooling degree days 288 221  
Year to date cooling degree days 1777 1819  
Growing Degree Days 28 (Base 50)    
Moisture  
Dew Point 65 °F    
Average Humidity 67    
Maximum Humidity 87    
Minimum Humidity 47    
Precipitation  
Precipitation T in 0.13 in 2.34 in (1969)
Month to date precipitation 0.27 2.61  
Year to date precipitation 48.56 40.69  
Sea Level Pressure  
Sea Level Pressure 29.97 in    
Wind  
Wind Speed 4 mph (SSE)    
Max Wind Speed 12 mph    
Max Gust Speed 15 mph    
Visibility 10 miles    
Events Rain    
T = Trace of Precipitation, MM = Missing Value Source: NWS Daily Summary

Daily Weather History Graph

Daily Weather History Graph

Search for Another Location

Airport or City:

Trip Planner

Search our weather history database for the weather conditions in past years. The results will help you decide how hot, cold, wet, or windy it might be!

Date:

Astronomy

Sep. 20, 2013 Rise Set
Actual Time 6:34 AM CDT 6:46 PM CDT
Civil Twilight 6:09 AM CDT 7:10 PM CDT
Nautical Twilight 5:40 AM CDT 7:39 PM CDT
Astronomical Twilight 5:11 AM CDT 8:08 PM CDT
Moon 7:27 PM CDT (9/20) 7:42 AM CDT (9/20)
Length of Visible Light 13h 01m
Length of Day
12h 12m
Full, 98% of the Moon is Illuminated
Sep 20
Full
Sep 26
Last Quarter
Oct 4
New
Oct 11
First Quarter
Oct 18
Full

Hourly Weather History & Observations

Time (CDT) Temp. Heat Index Dew Point Humidity Pressure Visibility Wind Dir Wind Speed Gust Speed Precip Events Conditions
12:53 AM 70.0 °F - 63.0 °F 78% 30.05 in 10.0 mi Calm Calm - N/A   Clear
1:53 AM 69.1 °F - 64.0 °F 84% 30.06 in 10.0 mi Calm Calm - N/A   Clear
2:53 AM 69.1 °F - 63.0 °F 81% 30.05 in 10.0 mi Calm Calm - N/A   Clear
3:53 AM 68.0 °F - 63.0 °F 84% 30.04 in 10.0 mi Calm Calm - N/A   Clear
4:53 AM 68.0 °F - 62.1 °F 81% 30.04 in 10.0 mi Calm Calm - N/A   Clear
5:53 AM 66.9 °F - 62.1 °F 84% 30.04 in 9.0 mi Calm Calm - N/A   Clear
6:53 AM 68.0 °F - 62.1 °F 81% 30.05 in 8.0 mi Calm Calm - N/A   Clear
7:53 AM 71.1 °F - 62.1 °F 73% 30.04 in 10.0 mi Calm Calm - N/A   Clear
8:53 AM 73.9 °F - 63.0 °F 68% 30.04 in 10.0 mi East 4.6 mph - N/A   Clear
9:53 AM 80.1 °F 81.9 °F 64.9 °F 60% 30.04 in 10.0 mi Variable 5.8 mph - N/A   Clear
10:53 AM 84.0 °F 85.8 °F 64.9 °F 53% 30.02 in 10.0 mi Variable 3.5 mph - N/A   Clear
11:53 AM 84.9 °F 87.1 °F 66.0 °F 53% 30.00 in 10.0 mi South 5.8 mph - N/A   Mostly Cloudy
12:53 PM 87.1 °F 89.2 °F 66.0 °F 49% 29.96 in 10.0 mi Variable 4.6 mph - N/A   Scattered Clouds
1:53 PM 89.1 °F 91.3 °F 66.0 °F 46% 29.93 in 10.0 mi SSE 6.9 mph - N/A   Scattered Clouds
2:53 PM 89.1 °F 91.3 °F 66.0 °F 46% 29.90 in 10.0 mi SSE 6.9 mph - N/A   Mostly Cloudy
3:53 PM 87.1 °F 89.9 °F 66.9 °F 51% 29.89 in 10.0 mi SE 5.8 mph - N/A   Mostly Cloudy
4:53 PM 90.0 °F 92.8 °F 66.9 °F 46% 29.87 in 10.0 mi SSE 8.1 mph - N/A   Mostly Cloudy
5:53 PM 84.9 °F 87.6 °F 66.9 °F 55% 29.86 in 10.0 mi SE 5.8 mph - N/A   Clear
6:53 PM 82.9 °F 85.8 °F 68.0 °F 60% 29.87 in 10.0 mi SE 4.6 mph - N/A   Clear
7:53 PM 82.0 °F 84.9 °F 68.0 °F 62% 29.88 in 10.0 mi Calm Calm - N/A   Clear
8:53 PM 81.0 °F 83.8 °F 68.0 °F 65% 29.88 in 10.0 mi SE 5.8 mph - N/A   Scattered Clouds
9:53 PM 79.0 °F - 69.1 °F 72% 29.89 in 10.0 mi South 3.5 mph - 0.00 in Rain Light Rain
10:53 PM 79.0 °F - 69.1 °F 72% 29.89 in 10.0 mi SSE 4.6 mph - 0.00 in   Overcast
11:53 PM 78.1 °F - 70.0 °F 76% 29.87 in 10.0 mi South 5.8 mph - N/A   Scattered Clouds